Orbital Elements at Epoch 2459200.5 (2020-Dec-17.0) TDB
Reference: JPL 24 (heliocentric ecliptic J2000)
Element | Value | Uncertainty (1-sigma) | Units |
e | .02889513496996652 | 3.8599e-08 | |
a | 2.346573145631852 | 1.2173e-08 | au |
q | 2.278768597871921 | 9.3933e-08 | au |
i | 8.889283047658349 | 4.3265e-06 | deg |
node | 275.0852114659239 | 3.1356e-05 | deg |
peri | 13.11555194068282 | 9.4572e-05 | deg |
M | 39.72709185376589 | 8.9687e-05 | deg |
tp | 2459055.611523777563 (2020-Jul-25.11152378) | 0.00032711 | TDB |
period | 1312.954183308355 3.59 | 1.0217e-05 2.797e-08 | d yr |
n | .2741908320767746 | 2.1336e-09 | deg/d |
Q | 2.414377693391783 | 1.2525e-08 | au |
|
| | Orbit Determination Parameters
Additional Information
|